WST602 MYNN-MYAM

Flight info

Callsign WST602
Flight time 0h 20m
Altitude 13000
Route ZQA BR70V MRRSH
Aircraft E145/M-SDFGIRW/S

Departure

Time 2026-05-05 12:36
Airport Lynden Pindling International Airport (MYNN)

Arrival

Time 2026-05-05 12:56
Airport Leonard M. Thompson International Airport (MYAM)
Time Latitude Longitude Altitude Speed Heading
2026-05-05 12:30 25.04744 -77.46596 7 ft 0 kts 178°
2026-05-05 12:32 25.04743 -77.46596 7 ft 0 kts 189°
2026-05-05 12:33 25.04744 -77.46603 7 ft 1 kts 303°
2026-05-05 12:33 25.04764 -77.46620 7 ft 5 kts 312°
2026-05-05 12:33 25.04757 -77.46680 7 ft 10 kts 233°
2026-05-05 12:33 25.04712 -77.46748 7 ft 12 kts 256°
2026-05-05 12:34 25.04760 -77.46838 7 ft 16 kts 316°
2026-05-05 12:34 25.04847 -77.46936 7 ft 18 kts 314°
2026-05-05 12:34 25.04945 -77.47047 7 ft 20 kts 315°
2026-05-05 12:34 25.05061 -77.47175 7 ft 26 kts 314°
2026-05-05 12:35 25.05191 -77.47317 7 ft 25 kts 315°
2026-05-05 12:35 25.05206 -77.47472 7 ft 21 kts 250°
2026-05-05 12:35 25.05155 -77.47538 7 ft 4 kts 161°
2026-05-05 12:35 25.05123 -77.47503 7 ft 12 kts 133°
2026-05-05 12:36 25.04888 -77.47240 7 ft 83 kts 135°
2026-05-05 12:36 25.04328 -77.46618 8 ft 137 kts 136°
2026-05-05 12:36 25.03598 -77.45832 314 ft 150 kts 139°
2026-05-05 12:36 25.02842 -77.45035 936 ft 151 kts 132°
2026-05-05 12:37 25.02510 -77.43909 1291 ft 174 kts 81°
2026-05-05 12:37 25.03237 -77.42680 1495 ft 212 kts 37°
2026-05-05 12:37 25.04605 -77.41896 1967 ft 232 kts 20°
2026-05-05 12:37 25.06183 -77.41381 2791 ft 233 kts 12°
2026-05-05 12:38 25.07723 -77.40987 3726 ft 228 kts 12°
2026-05-05 12:38 25.09301 -77.40619 4437 ft 232 kts 11°
2026-05-05 12:38 25.10906 -77.40253 5138 ft 238 kts
2026-05-05 12:38 25.12533 -77.39885 5869 ft 240 kts
2026-05-05 12:39 25.14146 -77.39522 6635 ft 241 kts
2026-05-05 12:39 25.15795 -77.39152 7360 ft 243 kts
2026-05-05 12:39 25.17506 -77.38766 7960 ft 251 kts
2026-05-05 12:39 25.19234 -77.38377 8641 ft 254 kts
2026-05-05 12:40 25.20981 -77.37984 9297 ft 257 kts
2026-05-05 12:40 25.22747 -77.37585 9965 ft 259 kts
2026-05-05 12:40 25.24511 -77.37187 10613 ft 262 kts
2026-05-05 12:40 25.26312 -77.36781 11256 ft 264 kts
2026-05-05 12:41 25.28129 -77.36372 11889 ft 266 kts
2026-05-05 12:41 25.29958 -77.35957 12588 ft 264 kts
2026-05-05 12:41 25.31780 -77.35548 12993 ft 275 kts
2026-05-05 12:41 25.33782 -77.35098 13046 ft 301 kts
2026-05-05 12:42 25.35931 -77.34612 13052 ft 327 kts
2026-05-05 12:42 25.38254 -77.34087 13051 ft 350 kts
2026-05-05 12:42 25.40703 -77.33532 13034 ft 370 kts
2026-05-05 12:42 25.43321 -77.32940 13035 ft 388 kts
2026-05-05 12:43 25.46027 -77.32327 13026 ft 396 kts
2026-05-05 12:43 25.48747 -77.31710 13033 ft 398 kts
2026-05-05 12:43 25.51493 -77.31088 13030 ft 399 kts
2026-05-05 12:43 25.54240 -77.30466 13023 ft 399 kts
2026-05-05 12:44 25.56967 -77.29848 13033 ft 399 kts
2026-05-05 12:44 25.59691 -77.29230 13029 ft 400 kts
2026-05-05 12:44 25.62464 -77.28601 13029 ft 400 kts
2026-05-05 12:44 25.65216 -77.27976 13029 ft 400 kts
2026-05-05 12:45 25.67955 -77.27354 13034 ft 400 kts
2026-05-05 12:45 25.70694 -77.26731 13021 ft 400 kts
2026-05-05 12:45 25.73448 -77.26105 13023 ft 400 kts
2026-05-05 12:45 25.76238 -77.25471 13026 ft 400 kts
2026-05-05 12:46 25.78962 -77.24851 13031 ft 400 kts
2026-05-05 12:46 25.81731 -77.24220 13033 ft 400 kts
2026-05-05 12:46 25.84481 -77.23594 13021 ft 400 kts
2026-05-05 12:46 25.87224 -77.22968 13029 ft 400 kts
2026-05-05 12:47 25.89985 -77.22447 13022 ft 397 kts
2026-05-05 12:47 25.92713 -77.22247 12763 ft 385 kts 359°
2026-05-05 12:47 25.95359 -77.22065 12438 ft 372 kts 359°
2026-05-05 12:47 25.97921 -77.21895 12110 ft 361 kts 359°
2026-05-05 12:48 26.00418 -77.21732 11761 ft 352 kts 359°
2026-05-05 12:48 26.02892 -77.21571 11118 ft 354 kts 359°
2026-05-05 12:48 26.05318 -77.21414 10244 ft 355 kts 359°
2026-05-05 12:48 26.07818 -77.21251 9411 ft 352 kts
2026-05-05 12:49 26.10218 -77.21094 8761 ft 345 kts
2026-05-05 12:49 26.12572 -77.20939 8551 ft 325 kts
2026-05-05 12:49 26.14755 -77.20795 8274 ft 302 kts
2026-05-05 12:49 26.16853 -77.20659 7952 ft 293 kts
2026-05-05 12:50 26.18860 -77.20528 7512 ft 285 kts
2026-05-05 12:50 26.20825 -77.20401 7078 ft 283 kts
2026-05-05 12:50 26.22801 -77.20271 6634 ft 281 kts
2026-05-05 12:50 26.24703 -77.20148 6208 ft 279 kts
2026-05-05 12:51 26.26638 -77.20020 5771 ft 278 kts
2026-05-05 12:51 26.28590 -77.19893 5329 ft 276 kts
2026-05-05 12:51 26.30497 -77.19768 4892 ft 275 kts
2026-05-05 12:51 26.32407 -77.19643 4455 ft 274 kts
2026-05-05 12:52 26.34320 -77.19518 4015 ft 274 kts
2026-05-05 12:52 26.36246 -77.19391 3577 ft 273 kts
2026-05-05 12:52 26.38125 -77.19268 3214 ft 269 kts
2026-05-05 12:52 26.39988 -77.19146 2849 ft 266 kts
2026-05-05 12:53 26.41837 -77.19025 2485 ft 264 kts
2026-05-05 12:53 26.43677 -77.18904 2153 ft 259 kts
2026-05-05 12:53 26.45466 -77.18787 1908 ft 253 kts
2026-05-05 12:53 26.47209 -77.18672 1661 ft 247 kts
2026-05-05 12:54 26.50063 -77.17423 1241 ft 190 kts 60°
2026-05-05 12:54 26.50704 -77.16265 1093 ft 159 kts 64°
2026-05-05 12:54 26.50881 -77.15202 933 ft 130 kts 101°
2026-05-05 12:55 26.50870 -77.14201 763 ft 129 kts 90°
2026-05-05 12:55 26.50892 -77.13197 595 ft 130 kts 90°
2026-05-05 12:55 26.50918 -77.12176 439 ft 131 kts 91°
2026-05-05 12:55 26.50946 -77.11150 298 ft 130 kts 92°
2026-05-05 12:56 26.50966 -77.10154 145 ft 129 kts 91°
2026-05-05 12:56 26.50998 -77.09171 11 ft 119 kts 90°
2026-05-05 12:56 26.51017 -77.08387 17 ft 68 kts 88°
2026-05-05 12:56 26.51083 -77.08048 18 ft 39 kts 58°
2026-05-05 12:57 26.51197 -77.07851 16 ft 21 kts 57°
2026-05-05 12:57 26.51253 -77.07819 15 ft 10 kts 329°
2026-05-05 12:57 26.51291 -77.07810 15 ft 1 kts 90°
2026-05-05 12:57 26.51291 -77.07809 15 ft 0 kts 90°